User: anonymous   Login
Location: Unspecified
(0.0000°N, 0.0000°E)
Time: 22:13:27
(UTC+00:00)
Language:

Transit 2A Rocket - Orbit

View from above orbital plane
View from above orbital plane
View from above satellite
View from above satellite

Ground track
Ground track

The orbit data is extracted from the following two-line orbital elements,

1 00047U 60007C   15117.45680463  .00000342  00000-0  10032-3 0  9993
2 00047 066.6641 135.1786 0235494 237.9358 119.8685 14.41602126864370
Epoch (UTC): 27 April 2015 10:57:47
Eccentricity: 0.0235494
inclination: 66.6641°
perigee height: 585 km
apogee height: 921 km
right ascension of ascending node: 135.1786°
argument of perigee: 237.9358°
revolutions per day: 14.41602126
mean anomaly at epoch: 119.8685°
orbit number at epoch: 86437

The dashed part of the orbit path shows where the satellite is in the earth's shadow,  

DLR